Home > Weather > Ibadan > Past weeks

Flag for Nigeria Weather for the Past 2 Weeks in Ibadan, Nigeria

Now
79 °F

Fog.


Feels Like: 83 °F
Forecast: 70 / 98 °F
Wind: 3 mph from North

Location: Lagos / Ikeja

Current Time: Feb 7, 2016 at 5:40:22 AM

Latest Report: Feb 7, 2016 at 4:00 AM


Visibility: 2 mi

Pressure: 29.92 "Hg

Humidity: 94%

Dew point: 77 °F

Location of IbadanLocation

Historic Weather in Ibadan — Graph

°F

Ibadan Temperature Yesterday

Maximum temperature yesterday: 95 °F (at 3:00 PM)
Minimum temperature yesterday: 77 °F (at 6:00 AM)
Average temperature yesterday: 84 °F

High & Low Weather Summary for the Past Weeks

 TemperatureHumidityPressure
High97 °F (Feb 5, 3:00 PM)100% (Jan 23, 7:00 AM)30.07 "Hg (Jan 23, 7:00 AM)
Low70 °F (Jan 27, 6:00 AM)20% (Jan 25, 12:00 PM)29.80 "Hg (Feb 2, 4:00 PM)
Average82 °F65%29.94 "Hg
* Reported Jan 23 4:00 AM — Feb 7 4:00 AM, Ibadan, Weather by CustomWeather, © 2016

Note: Actual official high and low records may vary slightly from our data, if they occured in-between our weather recording intervals... More about our weather records

Advertising

Ibadan Weather History for the Previous 24 Hours

 ConditionsComfort  
Time TempWeatherWind HumidityBarometerVisibility
4:00 AM
Sun, Feb 7
79 °FFog.3 mph94%29.92 "Hg2 mi
3:00 AM79 °FFog.No wind94%29.92 "Hg2 mi
2:00 AM79 °FHaze.No wind94%29.92 "Hg2 mi
1:00 AM79 °FHaze.No wind100%29.95 "Hg2 mi
12:00 AM81 °FPassing clouds.2 mph89%29.95 "Hg2 mi
11:00 PM
Sat, Feb 6
81 °FHaze.3 mph89%29.95 "Hg2 mi
9:00 PM82 °FHaze.6 mph84%29.92 "Hg2 mi
8:00 PM82 °FHaze.5 mph79%29.89 "Hg3 mi
7:00 PM84 °FHaze.5 mph74%29.89 "Hg3 mi
6:00 PM86 °FHaze.5 mph66%29.86 "Hg3 mi
5:00 PM90 °FHaze.6 mph63%29.83 "Hg2 mi
4:00 PM93 °FHaze.7 mph56%29.86 "Hg2 mi
3:00 PM95 °FPassing clouds.6 mph47%29.86 "Hg2 mi
2:00 PM93 °FHaze.7 mph49%29.89 "Hg2 mi
1:00 PM91 °FPartly sunny.2 mph56%29.92 "Hg2 mi
12:00 PM88 °FPartly sunny.2 mph66%29.98 "Hg2 mi
11:00 AM86 °FPartly sunny.2 mph70%29.98 "Hg2 mi
10:00 AM82 °FScattered clouds.2 mph79%29.98 "Hg2 mi
9:00 AM81 °FScattered clouds.6 mph89%29.98 "Hg2 mi
8:00 AM79 °FHaze.No wind94%29.95 "Hg1 mi
7:00 AM79 °FFog.2 mph94%29.95 "Hg2 mi
6:00 AM77 °FFog.2 mph100%29.92 "Hg2 mi
5:00 AM79 °FFog.2 mph94%29.92 "Hg2 mi
Weather by CustomWeather, © 2016

See weather overviewHow to use our weather pages